Location: Beadle
(51.4667°N, 109.0000°W)
Time: 04:09:11
(UTC+00:00)

Altair - Pass Details

Date: 29 May 2022
Orbit: 1501 x 1682 km, 47.2° (Epoch: 30 June)

Event Time Altitude Azimuth Distance (km) Brightness Sun altitude
Rises 23:51:37 0° 238° (WSW) 4,833 11.0 29.3°
Reaches altitude 10° 23:54:46 10° 234° (SW) 3,870 10.6 28.9°
Maximum altitude 00:04:25 59° 159° (SSE) 1,891 8.2 27.4°
Drops below altitude 10° 00:14:17 10° 84° (E) 3,949 9.2 25.8°
Sets 00:17:31 0° 81° (E) 4,937 9.6 25.3°
